SCP
-0 -0 -0 -0 -0 0 0 0 0 0 0 0 0 0 -0 -0 -0 -0 -0 -0 -0 -0 0 0 0 0 0 0 0 0 0 -0 -0 0 0 0 0 0 -0 0 0 -0 0 0 0 -0 0
0 0 -0 -0 -0 -0 -0 -0 0 0 0 0 0 0 0 -0 -0 -0 -0 -0 -0 -0 -0 0 0 0 0 0 0 0 0 -0 -0 -0 0 0 0 0 0 0 0 0 0 0 0 0 0
0 0 0 0 0 0 -0 -0 -0 -0 0 0 0 0 0 0 -0 -0 -0 -0 -0 -0 0 0 0 0 0 0 0 0 0 0 0 0 0 0 0 0 0 0 0 0 0 -0 0 0 0
0 0 0 0 0 0 0 0 -0 -0 -0 0 0 0 -0 -0 0 -0 -0 -0 -0 0 0 0 0 0 0 0 0 0 0 0 0 0 0 0 0 0 0 0 0 0 -0 -0 0 0 0
0 0 0 0 0 0 0 0 0 0 -0 -0 0 0 -0 -0 -0 -0 -0 -0 0 0 0 0 0 0 0 0 0 0 0 0 0 0 0 0 0 0 0 -0 0 0 0 0 0 0 0
0 0 0 0 0 0 0 0 0 0 0 -0 -0 -0 -0 -0 -0 -0 -0 0 0 0 0 0 0 0 0 0 0 0 0 0 0 0 0 0 0 0 0 0 0 0 -0 0 0 0 0
0 0 0 0 0 0 0 0 0 0 0 0 -0 -0 -0 -0 -0 -0 0 -0 -0 -0 0 0 0 0 0 0 0 0 0 0 0 0 0 0 0 0 0 0 0 0 0 0 0 0 0
0 0 0 0 0 0 0 0 0 0 0 0 0 0 -0 -0 -0 0 0 0 0 0 0 0 0 0 0 0 0 0 0 0 -0 0 0 0 0 0 0 0 0 0 0 0 0 0 0
0 0 0 0 0 0 0 0 0 0 0 0 0 0 0 -0 -0 0 0 0 0 0 0 0 0 0 0 0 0 0 0 0 0 0 0 0 0 0 0 0 0 0 0 0 0 0 0
0 0 0 0 0 0 0 0 0 0 0 0 0 0 0 0 0 0 0 0 0 -0 0 0 0 0 0 0 0 0 0 0 0 0 0 0 0 0 0 0 0 0 0 0 0 0 0
0 0 0 0 0 0 0 0 0 0 0 0 0 0 0 0 0 0 0 0 0 0 0 0 0 0 0 0 0 0 0 0 0 0 0 0 0 0 0 0 0 0 0 0 0 0 0
0 0 0 0 0 0 0 0 0 0 0 0 0 0 0 -0 0 0 0 0 0 0 0 0 0 0 0 0 0 0 0 0 0 0 0 0 0 0 0 0 0 0 0 0 0 0 0
0 0 0 0 0 0 0 0 0 0 0 0 0 0 0 0 0 0 0 0 0 0 0 0 0 0 0 0 0 0 0 0 0 0 0 0 0 0 0 0 0 0 0 0 0 0 0
0 0 0 0 0 0 0 0 0 0 0 0 0 0 0 0 0 0 0 0 0 0 0 0 0 0 0 0 0 0 0 0 0 0 0 0 0 0 0 0 0 0 0 0 0 0 0
0 0 0 0 0 0 0 0 0 0 0 0 0 0 0 0 0 0 0 0 0 0 0 0 0 0 0 0 0 0 0 0 0 0 0 0 0 0 0 0 0 0 0 0 0 0 0
0 0 0 0 0 0 0 0 0 0 0 0 0 0 0 0 0 0 0 0 0 0 0 0 0 0 0 0 0 0 0 0 0 0 0 0 0 0 0 0 0 0 0 0 0 0 0
0 0 0 0 0 0 0 0 0 0 0 0 0 0 0 0 0 0 0 0 0 0 0 0 0 0 0 0 0 0 0 0 0 0 0 0 0 0 0 0 0 0 0 0 0 0 0
0 0 0 0 0 0 0 0 0 0 0 0 0 0 0 0 0 0 0 0 0 0 0 0 0 0 0 0 0 0 0 0 0 0 0 0 0 0 0 0 0 0 0 0 0 0 0
0 0 0 0 0 0 0 0 0 0 0 0 0 0 0 0 0 0 0 0 0 0 0 0 0 0 0 0 0 0 0 0 0 0 0 0 0 0 0 0 0 0 0 0 0 0 0
0 0 0 0 0 0 0 0 0 0 0 0 0 0 0 0 0 0 0 0 0 0 0 0 0 0 0 0 0 0 0 0 0 0 0 0 0 0 0 0 0 0 0 0 0 0 0
0 0 0 0 0 0 0 0 0 0 0 0 0 0 0 0 0 0 0 0 0 0 0 0 0 0 0 0 0 0 0 0 0 0 0 0 0 0 0 0 0 0 0 0 0 0 0
0 0 0 0 0 0 0 0 0 0 0 0 0 0 0 0 0 0 0 0 0 0 0 0 0 0 0 0 0 0 0 0 0 0 0 0 0 0 0 0 0 0 0 0 0 0 0
0 0 0 0 0 0 0 0 0 0 0 0 0 0 0 0 0 0 0 0 0 0 0 0 0 0 0 0 0 0 0 0 0 0 0 0 0 0 0 0 0 0 0 0 0 0 0
0 0 0 0 0 0 0 0 0 0 0 0 0 0 0 0 0 0 0 0 0 0 0 0 0 0 0 0 0 0 0 0 0 0 0 0 0 0 0 0 0 0 0 0 0 0 0
0 0 0 0 0 0 0 0 0 0 0 0 0 0 0 0 0 0 0 0 0 0 0 0 0 0 0 0 0 0 0 0 0 0 0 0 0 0 0 0 0 0 0 0 0 0 0
0 0 0 0 0 0 0 0 0 0 0 0 0 0 0 0 0 0 0 0 0 0 0 0 0 0 0 0 0 0 0 0 0 0 0 0 0 0 0 0 0 0 0 0 0 0 0
0 0 0 0 0 0 0 0 0 0 0 0 0 0 0 0 0 0 0 0 0 0 0 0 0 0 0 0 0 0 0 0 0 0 0 0 0 0 0 0 0 0 0 0 0 0 0
0 0 0 0 0 0 0 0 0 0 0 0 0 0 0 0 0 0 0 0 0 0 0 0 0 0 0 0 0 0 0 0 0 0 0 0 0 0 0 0 0 0 0 0 0 0 0
0 0 0 0 0 0 0 0 0 0 0 0 0 0 0 0 0 0 0 0 0 0 0 0 0 0 0 0 0 0 0 0 0 0 0 0 0 0 0 0 0 0 0 0 0 0 0
Wind_Speed_500mb
26 28 30 32 33 33 33 34 35 36 36 35 34 34 33 32 32 32 30 28 26 23 19 15 12 12 9 11 15 12 12 31 37 32 23 25 25 21 22 20 19 23 15 15 17 16 19
26 28 29 30 31 32 34 34 35 36 37 37 36 36 35 34 33 33 31 28 26 22 18 14 12 11 7 20 17 14 14 33 31 29 24 24 15 12 10 15 24 12 15 18 15 21 17
26 27 29 31 31 31 33 35 35 36 38 38 38 38 37 36 35 33 31 30 25 19 15 14 13 12 17 21 16 14 21 28 29 22 28 19 10 14 9 16 12 12 18 21 15 11 12
29 31 31 31 33 33 34 36 37 37 38 39 40 39 39 38 36 34 32 27 23 15 12 13 13 10 15 18 28 21 24 25 27 23 19 16 8 7 14 1 14 21 18 26 19 19 8
32 32 33 35 34 35 37 37 38 39 39 40 40 40 39 39 37 33 30 23 17 10 10 12 10 10 12 12 19 24 28 25 25 25 14 15 7 9 13 22 20 20 26 25 19 12 15
34 32 34 36 36 36 37 39 40 40 40 41 41 41 39 38 36 32 24 18 8 8 10 11 18 11 20 13 14 22 29 27 29 29 17 17 17 18 19 20 22 25 28 16 17 17 17
38 39 37 36 37 37 37 37 39 41 41 41 42 40 39 37 34 27 14 8 8 7 16 20 6 10 7 8 12 21 33 33 29 36 27 30 20 24 25 17 16 16 17 19 18 7 11
36 37 39 39 39 40 40 40 40 39 41 42 42 42 37 34 32 12 6 2 5 9 22 32 42 37 18 8 13 26 36 31 37 36 36 16 29 18 5 12 16 21 24 25 15 6 15
37 39 40 40 41 41 41 42 42 41 40 41 42 42 38 30 24 5 2 2 12 17 16 16 31 37 33 35 20 35 46 42 37 39 33 33 4 9 22 20 22 24 26 24 25 17 14
37 38 40 42 43 44 43 43 43 44 42 40 40 41 39 30 9 16 2 8 19 9 10 15 15 15 32 28 23 33 47 42 23 37 31 27 21 13 23 23 24 23 27 24 22 21 23
37 39 41 41 40 41 43 45 44 43 43 42 38 37 36 31 25 9 13 12 14 2 10 14 13 12 18 39 19 46 44 37 32 28 24 24 22 31 27 25 21 2 4 23 28 27 18
43 44 45 46 44 42 41 41 44 45 44 42 40 36 35 33 27 11 10 9 3 12 15 10 13 20 24 39 17 32 41 34 42 30 27 31 10 16 33 19 13 6 10 16 19 20 22
43 45 44 44 46 47 48 45 42 43 45 43 39 37 34 35 12 14 8 5 11 14 7 13 10 18 28 25 27 28 41 41 28 33 33 30 29 21 11 25 17 20 20 16 18 19 20
43 44 39 40 42 42 44 47 47 45 44 45 41 38 37 31 30 20 11 14 23 8 19 3 4 14 22 23 38 33 40 42 46 37 22 27 28 41 27 33 23 31 26 15 17 14 13
44 43 44 42 42 40 39 42 45 46 44 45 41 36 36 27 27 26 24 27 14 25 4 8 12 16 23 23 17 35 37 42 44 38 24 26 27 9 28 33 34 17 21 12 15 9 16
39 38 40 41 41 38 39 41 42 44 42 40 41 33 21 28 24 29 21 38 32 7 9 10 20 10 23 30 27 33 36 39 41 45 40 16 15 19 20 19 12 23 19 14 16 20 24
34 31 36 35 33 33 37 37 38 41 38 33 25 13 17 15 18 25 27 40 46 25 15 11 12 13 16 15 33 37 28 11 41 41 48 23 14 20 22 27 31 18 24 15 12 9 16
31 28 31 33 26 28 32 34 36 37 35 22 9 11 13 22 23 24 30 37 33 28 29 17 12 16 19 9 24 29 38 36 36 44 49 35 17 16 29 14 7 12 25 32 21 24 14
30 27 26 26 26 24 27 31 30 32 29 23 12 19 9 14 15 24 25 36 31 26 26 26 23 18 4 13 12 26 27 14 25 36 32 32 20 24 23 16 13 20 21 17 11 9 15
27 27 27 25 25 24 26 27 24 27 27 17 11 8 17 28 27 20 29 33 41 35 30 28 14 25 19 23 21 14 22 14 23 37 11 35 25 34 25 26 30 30 24 25 26 18 21
30 24 24 24 24 24 26 25 19 23 23 11 13 5 11 9 26 26 18 12 34 33 32 25 30 38 30 22 26 24 21 18 16 15 20 25 27 33 36 25 19 26 33 29 28 24 16
26 25 24 23 22 21 22 22 17 18 21 0 13 10 10 28 17 21 27 23 26 35 18 26 25 29 39 33 25 23 26 24 21 22 24 17 16 24 24 20 24 25 26 29 27 19 13
23 23 24 22 24 23 24 20 17 17 13 4 10 13 10 11 16 16 27 34 23 18 21 29 20 9 21 38 43 13 20 9 9 26 23 24 17 22 22 17 20 24 26 29 24 21 18
26 25 24 22 25 23 19 20 20 16 12 8 12 13 14 17 13 18 4 13 33 27 25 9 13 20 8 10 13 14 15 17 18 12 18 21 25 16 15 20 25 9 12 12 17 11 14
23 19 23 22 21 22 20 16 18 16 14 12 12 10 8 13 18 18 22 14 17 28 26 32 25 12 12 17 20 17 19 17 13 8 12 10 19 8 12 25 13 13 12 15 19 15 14
18 16 17 19 20 17 15 17 16 15 22 13 13 14 13 14 7 9 17 10 14 15 21 28 20 13 10 15 21 26 29 25 20 14 5 11 11 18 16 27 27 19 23 9 5 19 14
18 17 15 18 22 20 22 20 20 19 15 11 12 12 15 16 24 10 8 10 7 9 10 2 3 11 14 18 21 25 23 28 27 33 17 19 20 27 19 21 10 19 20 16 17 4 15
19 18 20 12 18 23 23 22 21 18 21 18 12 16 19 23 38 21 15 14 9 4 9 12 9 12 12 16 19 9 14 20 21 23 31 26 23 18 20 22 20 27 17 19 9 15 14
20 20 21 19 19 21 22 22 19 15 18 16 13 12 15 25 22 23 26 33 31 24 20 10 10 5 10 9 6 6 12 8 24 18 3 20 11 11 12 14 18 20 0 8 5 9 11
Wind_Direction_500mb
360 358 357 357 358 358 357 354 352 350 348 347 345 343 340 336 331 328 325 320 317 315 305 276 274 267 267 249 245 207 189 177 181 182 191 190 191 207 212 207 196 232 222 225 246 253 250
346 347 348 349 350 351 351 350 348 346 344 343 343 341 339 335 329 324 321 314 311 308 298 266 259 254 250 250 232 201 170 180 179 182 194 187 204 212 213 201 220 184 240 245 257 260 238
337 340 342 341 342 344 344 344 344 342 340 339 339 339 337 335 329 324 318 313 308 301 287 251 245 247 252 248 225 191 167 176 186 185 180 180 178 207 174 188 223 236 246 210 220 217 188
337 336 335 335 335 335 337 338 338 338 337 336 336 337 336 334 330 326 318 314 309 293 270 242 233 243 253 238 218 194 174 182 188 183 183 194 193 236 226 161 209 234 226 211 147 179 152
337 339 336 333 333 332 332 333 333 333 334 333 333 334 334 334 330 328 322 315 308 279 243 227 232 222 251 239 216 204 190 183 176 179 174 181 198 225 195 223 214 204 212 223 144 203 156
329 329 329 329 330 330 330 330 330 330 330 330 330 330 332 333 330 330 326 317 302 275 239 235 225 245 233 188 184 186 181 181 172 174 181 204 210 213 220 221 222 208 234 194 191 161 199
324 325 326 325 326 328 329 330 329 329 328 327 326 326 330 332 331 334 335 335 286 238 225 226 222 236 162 180 182 178 173 170 181 183 201 201 218 217 214 224 313 287 254 232 191 128 248
326 325 325 327 327 327 328 329 329 329 329 328 326 324 328 332 332 339 359 56 45 303 294 251 241 238 220 165 180 179 177 181 190 197 208 182 226 227 220 213 221 227 231 224 215 179 234
326 325 325 325 325 325 326 326 326 327 328 328 327 325 325 333 332 348 116 109 341 340 261 259 226 226 216 214 212 192 185 197 198 209 199 227 99 233 207 198 218 225 230 229 237 175 229
328 327 325 323 322 321 321 321 322 323 324 326 327 326 326 334 353 340 226 270 336 340 272 169 202 218 190 187 221 201 193 193 206 213 212 237 196 184 203 223 215 226 212 234 223 222 236
322 323 322 321 320 319 320 319 318 318 320 322 323 324 322 323 313 325 256 271 325 313 270 116 150 166 179 183 145 191 190 203 212 207 197 212 210 213 220 222 201 98 210 222 217 225 258
318 319 321 321 320 317 316 316 316 315 314 315 317 317 314 312 309 292 266 240 236 229 239 164 151 179 168 207 204 151 183 207 219 210 219 242 189 219 215 165 210 127 196 188 211 218 225
311 313 315 317 319 319 318 316 313 311 311 310 309 307 302 296 281 270 254 204 217 237 102 165 193 186 200 182 197 184 184 191 191 198 209 216 211 196 204 204 190 208 201 194 208 206 239
309 307 309 312 314 315 314 314 313 311 309 307 305 300 294 282 274 256 212 213 230 214 219 45 236 196 199 189 207 194 190 198 210 205 203 206 206 209 193 228 207 205 220 251 240 209 222
308 310 314 315 317 317 313 311 310 310 311 308 308 303 295 278 253 218 204 213 221 230 262 239 242 230 203 201 218 195 206 208 200 204 224 203 229 170 211 207 227 180 221 287 258 265 280
302 304 308 313 314 316 314 312 311 309 311 314 316 309 273 261 230 192 218 228 232 228 269 229 236 220 222 195 203 196 195 211 206 204 215 201 213 198 174 195 202 255 179 195 214 243 241
306 301 308 312 312 314 314 317 316 314 313 318 318 291 232 235 176 187 223 219 227 227 242 239 244 249 241 226 208 198 197 179 199 197 207 191 251 159 172 206 191 185 213 230 289 309 260
312 308 303 309 313 312 315 319 326 321 321 327 299 246 271 180 214 206 228 221 227 236 218 240 263 261 257 234 225 230 218 213 199 198 203 209 216 212 200 104 329 274 238 213 233 218 235
304 308 306 307 305 302 309 315 328 332 340 337 285 268 260 189 225 215 224 225 226 223 213 219 228 234 245 256 240 224 220 165 185 176 190 185 213 208 221 198 198 228 204 234 246 272 235
293 302 297 297 297 296 303 310 324 334 344 347 281 260 198 214 247 286 212 217 218 220 234 219 241 235 243 243 230 212 196 175 186 205 170 182 216 219 220 218 206 203 211 214 211 227 235
287 287 286 300 292 294 296 294 315 324 337 346 246 240 315 205 222 226 246 221 220 215 219 216 228 238 233 236 223 218 187 158 172 170 185 189 211 217 229 254 214 212 199 197 210 238 259
271 277 281 292 289 288 291 292 297 314 334 284 284 304 317 278 274 236 222 232 230 216 210 213 230 220 224 232 237 203 195 189 181 179 178 192 205 207 210 230 224 220 211 204 215 206 211
280 270 279 280 283 281 282 277 283 299 336 275 277 289 279 277 232 237 225 226 225 219 220 247 218 248 245 223 232 279 301 225 181 176 181 182 167 189 198 206 196 213 197 196 186 199 228
285 269 276 275 268 285 275 263 259 282 276 269 270 277 261 260 239 240 276 260 242 232 241 200 221 235 328 286 204 217 197 168 149 121 176 182 196 197 170 169 212 100 128 206 223 222 212
299 273 277 278 256 270 264 250 258 264 280 277 263 246 257 272 276 270 241 255 255 243 243 251 261 275 307 223 198 172 174 171 142 122 148 203 194 170 178 209 125 148 174 177 190 198 208
284 285 280 269 252 266 263 252 249 256 273 258 247 240 242 278 225 321 278 264 266 233 218 237 240 278 238 233 216 197 197 201 179 161 147 158 244 225 195 242 220 246 140 158 152 250 163
279 266 279 268 253 254 258 253 245 259 266 257 254 255 230 258 270 305 260 324 308 253 268 183 269 224 217 213 218 203 210 203 208 205 189 189 208 217 199 231 199 106 142 165 230 69 109
265 260 261 267 257 249 249 248 246 248 249 252 251 253 224 258 271 264 272 275 305 261 283 25 230 200 221 215 233 188 239 186 215 207 196 202 200 208 229 212 221 139 141 229 71 111 123
260 267 257 260 264 250 250 247 239 246 243 251 257 253 254 237 260 286 261 254 259 262 289 295 328 309 357 260 217 202 208 161 208 190 219 218 229 206 228 222 103 168 87 133 113 147 164
Wind_Speed_850mb
26 28 30 32 33 33 33 34 35 36 36 35 34 34 33 32 32 32 30 28 26 23 19 15 12 12 9 11 15 12 12 31 37 32 23 25 25 21 22 20 19 23 15 15 17 16 19
26 28 29 30 31 32 34 34 35 36 37 37 36 36 35 34 33 33 31 28 26 22 18 14 12 11 7 20 17 14 14 33 31 29 24 24 15 12 10 15 24 12 15 18 15 21 17
26 27 29 31 31 31 33 35 35 36 38 38 38 38 37 36 35 33 31 30 25 19 15 14 13 12 17 21 16 14 21 28 29 22 28 19 10 14 9 16 12 12 18 21 15 11 12
29 31 31 31 33 33 34 36 37 37 38 39 40 39 39 38 36 34 32 27 23 15 12 13 13 10 15 18 28 21 24 25 27 23 19 16 8 7 14 1 14 21 18 26 19 19 8
32 32 33 35 34 35 37 37 38 39 39 40 40 40 39 39 37 33 30 23 17 10 10 12 10 10 12 12 19 24 28 25 25 25 14 15 7 9 13 22 20 20 26 25 19 12 15
34 32 34 36 36 36 37 39 40 40 40 41 41 41 39 38 36 32 24 18 8 8 10 11 18 11 20 13 14 22 29 27 29 29 17 17 17 18 19 20 22 25 28 16 17 17 17
38 39 37 36 37 37 37 37 39 41 41 41 42 40 39 37 34 27 14 8 8 7 16 20 6 10 7 8 12 21 33 33 29 36 27 30 20 24 25 17 16 16 17 19 18 7 11
36 37 39 39 39 40 40 40 40 39 41 42 42 42 37 34 32 12 6 2 5 9 22 32 42 37 18 8 13 26 36 31 37 36 36 16 29 18 5 12 16 21 24 25 15 6 15
37 39 40 40 41 41 41 42 42 41 40 41 42 42 38 30 24 5 2 2 12 17 16 16 31 37 33 35 20 35 46 42 37 39 33 33 4 9 22 20 22 24 26 24 25 17 14
37 38 40 42 43 44 43 43 43 44 42 40 40 41 39 30 9 16 2 8 19 9 10 15 15 15 32 28 23 33 47 42 23 37 31 27 21 13 23 23 24 23 27 24 22 21 23
37 39 41 41 40 41 43 45 44 43 43 42 38 37 36 31 25 9 13 12 14 2 10 14 13 12 18 39 19 46 44 37 32 28 24 24 22 31 27 25 21 2 4 23 28 27 18
43 44 45 46 44 42 41 41 44 45 44 42 40 36 35 33 27 11 10 9 3 12 15 10 13 20 24 39 17 32 41 34 42 30 27 31 10 16 33 19 13 6 10 16 19 20 22
43 45 44 44 46 47 48 45 42 43 45 43 39 37 34 35 12 14 8 5 11 14 7 13 10 18 28 25 27 28 41 41 28 33 33 30 29 21 11 25 17 20 20 16 18 19 20
43 44 39 40 42 42 44 47 47 45 44 45 41 38 37 31 30 20 11 14 23 8 19 3 4 14 22 23 38 33 40 42 46 37 22 27 28 41 27 33 23 31 26 15 17 14 13
44 43 44 42 42 40 39 42 45 46 44 45 41 36 36 27 27 26 24 27 14 25 4 8 12 16 23 23 17 35 37 42 44 38 24 26 27 9 28 33 34 17 21 12 15 9 16
39 38 40 41 41 38 39 41 42 44 42 40 41 33 21 28 24 29 21 38 32 7 9 10 20 10 23 30 27 33 36 39 41 45 40 16 15 19 20 19 12 23 19 14 16 20 24
34 31 36 35 33 33 37 37 38 41 38 33 25 13 17 15 18 25 27 40 46 25 15 11 12 13 16 15 33 37 28 11 41 41 48 23 14 20 22 27 31 18 24 15 12 9 16
31 28 31 33 26 28 32 34 36 37 35 22 9 11 13 22 23 24 30 37 33 28 29 17 12 16 19 9 24 29 38 36 36 44 49 35 17 16 29 14 7 12 25 32 21 24 14
30 27 26 26 26 24 27 31 30 32 29 23 12 19 9 14 15 24 25 36 31 26 26 26 23 18 4 13 12 26 27 14 25 36 32 32 20 24 23 16 13 20 21 17 11 9 15
27 27 27 25 25 24 26 27 24 27 27 17 11 8 17 28 27 20 29 33 41 35 30 28 14 25 19 23 21 14 22 14 23 37 11 35 25 34 25 26 30 30 24 25 26 18 21
30 24 24 24 24 24 26 25 19 23 23 11 13 5 11 9 26 26 18 12 34 33 32 25 30 38 30 22 26 24 21 18 16 15 20 25 27 33 36 25 19 26 33 29 28 24 16
26 25 24 23 22 21 22 22 17 18 21 0 13 10 10 28 17 21 27 23 26 35 18 26 25 29 39 33 25 23 26 24 21 22 24 17 16 24 24 20 24 25 26 29 27 19 13
23 23 24 22 24 23 24 20 17 17 13 4 10 13 10 11 16 16 27 34 23 18 21 29 20 9 21 38 43 13 20 9 9 26 23 24 17 22 22 17 20 24 26 29 24 21 18
26 25 24 22 25 23 19 20 20 16 12 8 12 13 14 17 13 18 4 13 33 27 25 9 13 20 8 10 13 14 15 17 18 12 18 21 25 16 15 20 25 9 12 12 17 11 14
23 19 23 22 21 22 20 16 18 16 14 12 12 10 8 13 18 18 22 14 17 28 26 32 25 12 12 17 20 17 19 17 13 8 12 10 19 8 12 25 13 13 12 15 19 15 14
18 16 17 19 20 17 15 17 16 15 22 13 13 14 13 14 7 9 17 10 14 15 21 28 20 13 10 15 21 26 29 25 20 14 5 11 11 18 16 27 27 19 23 9 5 19 14
18 17 15 18 22 20 22 20 20 19 15 11 12 12 15 16 24 10 8 10 7 9 10 2 3 11 14 18 21 25 23 28 27 33 17 19 20 27 19 21 10 19 20 16 17 4 15
19 18 20 12 18 23 23 22 21 18 21 18 12 16 19 23 38 21 15 14 9 4 9 12 9 12 12 16 19 9 14 20 21 23 31 26 23 18 20 22 20 27 17 19 9 15 14
20 20 21 19 19 21 22 22 19 15 18 16 13 12 15 25 22 23 26 33 31 24 20 10 10 5 10 9 6 6 12 8 24 18 3 20 11 11 12 14 18 20 0 8 5 9 11
Wind_Direction_850mb
360 358 357 357 358 358 357 354 352 350 348 347 345 343 340 336 331 328 325 320 317 315 305 276 274 267 267 249 245 207 189 177 181 182 191 190 191 207 212 207 196 232 222 225 246 253 250
346 347 348 349 350 351 351 350 348 346 344 343 343 341 339 335 329 324 321 314 311 308 298 266 259 254 250 250 232 201 170 180 179 182 194 187 204 212 213 201 220 184 240 245 257 260 238
337 340 342 341 342 344 344 344 344 342 340 339 339 339 337 335 329 324 318 313 308 301 287 251 245 247 252 248 225 191 167 176 186 185 180 180 178 207 174 188 223 236 246 210 220 217 188
337 336 335 335 335 335 337 338 338 338 337 336 336 337 336 334 330 326 318 314 309 293 270 242 233 243 253 238 218 194 174 182 188 183 183 194 193 236 226 161 209 234 226 211 147 179 152
337 339 336 333 333 332 332 333 333 333 334 333 333 334 334 334 330 328 322 315 308 279 243 227 232 222 251 239 216 204 190 183 176 179 174 181 198 225 195 223 214 204 212 223 144 203 156
329 329 329 329 330 330 330 330 330 330 330 330 330 330 332 333 330 330 326 317 302 275 239 235 225 245 233 188 184 186 181 181 172 174 181 204 210 213 220 221 222 208 234 194 191 161 199
324 325 326 325 326 328 329 330 329 329 328 327 326 326 330 332 331 334 335 335 286 238 225 226 222 236 162 180 182 178 173 170 181 183 201 201 218 217 214 224 313 287 254 232 191 128 248
326 325 325 327 327 327 328 329 329 329 329 328 326 324 328 332 332 339 359 56 45 303 294 251 241 238 220 165 180 179 177 181 190 197 208 182 226 227 220 213 221 227 231 224 215 179 234
326 325 325 325 325 325 326 326 326 327 328 328 327 325 325 333 332 348 116 109 341 340 261 259 226 226 216 214 212 192 185 197 198 209 199 227 99 233 207 198 218 225 230 229 237 175 229
328 327 325 323 322 321 321 321 322 323 324 326 327 326 326 334 353 340 226 270 336 340 272 169 202 218 190 187 221 201 193 193 206 213 212 237 196 184 203 223 215 226 212 234 223 222 236
322 323 322 321 320 319 320 319 318 318 320 322 323 324 322 323 313 325 256 271 325 313 270 116 150 166 179 183 145 191 190 203 212 207 197 212 210 213 220 222 201 98 210 222 217 225 258
318 319 321 321 320 317 316 316 316 315 314 315 317 317 314 312 309 292 266 240 236 229 239 164 151 179 168 207 204 151 183 207 219 210 219 242 189 219 215 165 210 127 196 188 211 218 225
311 313 315 317 319 319 318 316 313 311 311 310 309 307 302 296 281 270 254 204 217 237 102 165 193 186 200 182 197 184 184 191 191 198 209 216 211 196 204 204 190 208 201 194 208 206 239
309 307 309 312 314 315 314 314 313 311 309 307 305 300 294 282 274 256 212 213 230 214 219 45 236 196 199 189 207 194 190 198 210 205 203 206 206 209 193 228 207 205 220 251 240 209 222
308 310 314 315 317 317 313 311 310 310 311 308 308 303 295 278 253 218 204 213 221 230 262 239 242 230 203 201 218 195 206 208 200 204 224 203 229 170 211 207 227 180 221 287 258 265 280
302 304 308 313 314 316 314 312 311 309 311 314 316 309 273 261 230 192 218 228 232 228 269 229 236 220 222 195 203 196 195 211 206 204 215 201 213 198 174 195 202 255 179 195 214 243 241
306 301 308 312 312 314 314 317 316 314 313 318 318 291 232 235 176 187 223 219 227 227 242 239 244 249 241 226 208 198 197 179 199 197 207 191 251 159 172 206 191 185 213 230 289 309 260
312 308 303 309 313 312 315 319 326 321 321 327 299 246 271 180 214 206 228 221 227 236 218 240 263 261 257 234 225 230 218 213 199 198 203 209 216 212 200 104 329 274 238 213 233 218 235
304 308 306 307 305 302 309 315 328 332 340 337 285 268 260 189 225 215 224 225 226 223 213 219 228 234 245 256 240 224 220 165 185 176 190 185 213 208 221 198 198 228 204 234 246 272 235
293 302 297 297 297 296 303 310 324 334 344 347 281 260 198 214 247 286 212 217 218 220 234 219 241 235 243 243 230 212 196 175 186 205 170 182 216 219 220 218 206 203 211 214 211 227 235
287 287 286 300 292 294 296 294 315 324 337 346 246 240 315 205 222 226 246 221 220 215 219 216 228 238 233 236 223 218 187 158 172 170 185 189 211 217 229 254 214 212 199 197 210 238 259
271 277 281 292 289 288 291 292 297 314 334 284 284 304 317 278 274 236 222 232 230 216 210 213 230 220 224 232 237 203 195 189 181 179 178 192 205 207 210 230 224 220 211 204 215 206 211
280 270 279 280 283 281 282 277 283 299 336 275 277 289 279 277 232 237 225 226 225 219 220 247 218 248 245 223 232 279 301 225 181 176 181 182 167 189 198 206 196 213 197 196 186 199 228
285 269 276 275 268 285 275 263 259 282 276 269 270 277 261 260 239 240 276 260 242 232 241 200 221 235 328 286 204 217 197 168 149 121 176 182 196 197 170 169 212 100 128 206 223 222 212
299 273 277 278 256 270 264 250 258 264 280 277 263 246 257 272 276 270 241 255 255 243 243 251 261 275 307 223 198 172 174 171 142 122 148 203 194 170 178 209 125 148 174 177 190 198 208
284 285 280 269 252 266 263 252 249 256 273 258 247 240 242 278 225 321 278 264 266 233 218 237 240 278 238 233 216 197 197 201 179 161 147 158 244 225 195 242 220 246 140 158 152 250 163
279 266 279 268 253 254 258 253 245 259 266 257 254 255 230 258 270 305 260 324 308 253 268 183 269 224 217 213 218 203 210 203 208 205 189 189 208 217 199 231 199 106 142 165 230 69 109
265 260 261 267 257 249 249 248 246 248 249 252 251 253 224 258 271 264 272 275 305 261 283 25 230 200 221 215 233 188 239 186 215 207 196 202 200 208 229 212 221 139 141 229 71 111 123
260 267 257 260 264 250 250 247 239 246 243 251 257 253 254 237 260 286 261 254 259 262 289 295 328 309 357 260 217 202 208 161 208 190 219 218 229 206 228 222 103 168 87 133 113 147 164